WLF88S FPST-FGSL

Flight info

Callsign WLF88S
Flight time 1h 13m
Altitude 7000
Route STM DCT PR DCT MBO
Aircraft AEST/L-SDFGRY/S

Departure

Time 2026-05-05 19:58
Airport São Tomé International Airport (FPST)

Arrival

Time 2026-05-05 21:12
Airport Malabo International Airport (FGSL)
Time Latitude Longitude Altitude Speed Heading
2026-05-05 19:19 0.37671 6.71093 31 ft 0 kts 283°
2026-05-05 19:54 0.37671 6.71092 31 ft 1 kts 283°
2026-05-05 19:55 0.37716 6.71067 31 ft 3 kts 15°
2026-05-05 19:55 0.37758 6.71095 31 ft 13 kts 12°
2026-05-05 19:55 0.37809 6.71104 31 ft 7 kts 11°
2026-05-05 19:55 0.37856 6.71042 31 ft 23 kts 283°
2026-05-05 19:56 0.37903 6.70845 31 ft 33 kts 284°
2026-05-05 19:56 0.37959 6.70610 31 ft 35 kts 283°
2026-05-05 19:56 0.38011 6.70390 31 ft 31 kts 283°
2026-05-05 19:56 0.38020 6.70257 31 ft 16 kts 300°
2026-05-05 19:57 0.38053 6.70257 31 ft 0 kts 89°
2026-05-05 19:57 0.38038 6.70300 31 ft 12 kts 111°
2026-05-05 19:57 0.37957 6.70620 31 ft 85 kts 104°
2026-05-05 19:57 0.37801 6.71290 117 ft 105 kts 105°
2026-05-05 19:58 0.37651 6.72053 287 ft 118 kts 100°
2026-05-05 19:58 0.37849 6.72836 442 ft 128 kts 46°
2026-05-05 19:58 0.38630 6.73219 743 ft 121 kts 14°
2026-05-05 19:58 0.39521 6.73175 915 ft 136 kts 345°
2026-05-05 19:59 0.40414 6.72955 1162 ft 136 kts 349°
2026-05-05 19:59 0.41373 6.73110 1155 ft 148 kts 30°
2026-05-05 19:59 0.42104 6.73833 1270 ft 157 kts 50°
2026-05-05 19:59 0.43074 6.74541 1327 ft 187 kts 27°
2026-05-05 20:00 0.44346 6.75041 1472 ft 204 kts 23°
2026-05-05 20:00 0.45681 6.75607 1620 ft 213 kts 26°
2026-05-05 20:00 0.47020 6.76269 1802 ft 216 kts 28°
2026-05-05 20:00 0.48353 6.76967 2006 ft 216 kts 28°
2026-05-05 20:01 0.49684 6.77673 2212 ft 218 kts 29°
2026-05-05 20:01 0.51021 6.78384 2410 ft 217 kts 29°
2026-05-05 20:01 0.52361 6.79097 2605 ft 218 kts 28°
2026-05-05 20:01 0.53708 6.79795 2788 ft 218 kts 28°
2026-05-05 20:02 0.55062 6.80486 2979 ft 218 kts 28°
2026-05-05 20:02 0.56413 6.81173 3161 ft 218 kts 28°
2026-05-05 20:02 0.57767 6.81862 3361 ft 218 kts 27°
2026-05-05 20:02 0.59119 6.82540 3552 ft 218 kts 27°
2026-05-05 20:03 0.60454 6.83207 3717 ft 213 kts 27°
2026-05-05 20:03 0.61785 6.83879 3854 ft 215 kts 28°
2026-05-05 20:03 0.63127 6.84561 4022 ft 218 kts 28°
2026-05-05 20:03 0.64483 6.85253 4198 ft 219 kts 28°
2026-05-05 20:04 0.65834 6.85938 4385 ft 216 kts 28°
2026-05-05 20:04 0.67171 6.86617 4524 ft 217 kts 28°
2026-05-05 20:04 0.68525 6.87298 4676 ft 218 kts 28°
2026-05-05 20:04 0.69874 6.87975 4834 ft 217 kts 28°
2026-05-05 20:05 0.71209 6.88651 4999 ft 214 kts 28°
2026-05-05 20:05 0.72535 6.89324 5151 ft 213 kts 28°
2026-05-05 20:05 0.73866 6.89993 5232 ft 215 kts 28°
2026-05-05 20:05 0.75219 6.90682 5201 ft 222 kts 29°
2026-05-05 20:06 0.76616 6.91401 5101 ft 229 kts 29°
2026-05-05 20:06 0.78046 6.92141 5020 ft 233 kts 29°
2026-05-05 20:06 0.79451 6.92871 5050 ft 229 kts 29°
2026-05-05 20:06 0.80850 6.93603 5072 ft 227 kts 29°
2026-05-05 20:07 0.82254 6.94327 5063 ft 227 kts 28°
2026-05-05 20:07 0.83657 6.95039 5061 ft 226 kts 28°
2026-05-05 20:07 0.85060 6.95751 5063 ft 225 kts 28°
2026-05-05 20:07 0.86453 6.96461 5064 ft 225 kts 28°
2026-05-05 20:08 0.87852 6.97168 5063 ft 225 kts 28°
2026-05-05 20:08 0.89249 6.97874 5065 ft 224 kts 28°
2026-05-05 20:08 0.90640 6.98578 5068 ft 224 kts 28°
2026-05-05 20:08 0.92036 6.99280 5062 ft 225 kts 28°
2026-05-05 20:09 0.93434 6.99985 5073 ft 225 kts 28°
2026-05-05 20:09 0.94823 7.00695 5065 ft 224 kts 28°
2026-05-05 20:09 0.96215 7.01404 5065 ft 225 kts 28°
2026-05-05 20:09 0.97615 7.02108 5071 ft 225 kts 28°
2026-05-05 20:10 0.99007 7.02813 5073 ft 224 kts 28°
2026-05-05 20:10 1.00398 7.03525 5065 ft 225 kts 28°
2026-05-05 20:10 1.01790 7.04232 5073 ft 225 kts 28°
2026-05-05 20:10 1.03184 7.04940 5072 ft 225 kts 28°
2026-05-05 20:11 1.04577 7.05652 5070 ft 225 kts 28°
2026-05-05 20:11 1.05970 7.06360 5072 ft 225 kts 28°
2026-05-05 20:11 1.07363 7.07064 5070 ft 224 kts 28°
2026-05-05 20:11 1.08749 7.07776 5069 ft 224 kts 28°
2026-05-05 20:12 1.10138 7.08488 5073 ft 225 kts 28°
2026-05-05 20:12 1.11531 7.09196 5071 ft 225 kts 28°
2026-05-05 20:12 1.12924 7.09903 5069 ft 224 kts 28°
2026-05-05 20:12 1.14312 7.10614 5069 ft 224 kts 28°
2026-05-05 20:13 1.15678 7.11310 5071 ft 223 kts 28°
2026-05-05 20:13 1.17076 7.12020 5072 ft 223 kts 28°
2026-05-05 20:13 1.18454 7.12723 5077 ft 222 kts 28°
2026-05-05 20:13 1.19833 7.13424 5071 ft 223 kts 28°
2026-05-05 20:14 1.21198 7.14112 5070 ft 222 kts 28°
2026-05-05 20:14 1.22591 7.14826 5073 ft 222 kts 28°
2026-05-05 20:14 1.23947 7.15522 5076 ft 222 kts 28°
2026-05-05 20:14 1.25329 7.16226 5072 ft 223 kts 28°
2026-05-05 20:15 1.26709 7.16928 5076 ft 222 kts 28°
2026-05-05 20:15 1.28084 7.17634 5072 ft 222 kts 28°
2026-05-05 20:15 1.29460 7.18332 5077 ft 222 kts 28°
2026-05-05 20:15 1.30839 7.19029 5077 ft 222 kts 28°
2026-05-05 20:16 1.32216 7.19730 5074 ft 222 kts 28°
2026-05-05 20:16 1.33597 7.20434 5071 ft 223 kts 28°
2026-05-05 20:16 1.34981 7.21129 5072 ft 222 kts 28°
2026-05-05 20:16 1.36361 7.21829 5073 ft 222 kts 28°
2026-05-05 20:17 1.37738 7.22534 5071 ft 222 kts 28°
2026-05-05 20:17 1.39115 7.23233 5075 ft 222 kts 28°
2026-05-05 20:17 1.40495 7.23929 5071 ft 222 kts 28°
2026-05-05 20:17 1.41870 7.24630 5072 ft 222 kts 28°
2026-05-05 20:18 1.43247 7.25331 5072 ft 222 kts 28°
2026-05-05 20:18 1.44626 7.26029 5075 ft 222 kts 28°
2026-05-05 20:18 1.46007 7.26731 5072 ft 223 kts 28°
2026-05-05 20:18 1.47384 7.27435 5073 ft 222 kts 28°
2026-05-05 20:19 1.48765 7.28135 5067 ft 222 kts 28°
2026-05-05 20:19 1.50140 7.28836 5076 ft 222 kts 28°
2026-05-05 20:19 1.51512 7.29542 5077 ft 222 kts 28°
2026-05-05 20:19 1.52877 7.30235 5073 ft 218 kts 28°
2026-05-05 20:20 1.54234 7.30917 5069 ft 218 kts 28°
2026-05-05 20:20 1.55586 7.31604 5072 ft 218 kts 28°
2026-05-05 20:20 1.56936 7.32293 5071 ft 218 kts 28°
2026-05-05 20:20 1.58285 7.32974 5077 ft 217 kts 29°
2026-05-05 20:21 1.59617 7.33652 5072 ft 218 kts 28°
2026-05-05 20:21 1.60970 7.34346 5075 ft 218 kts 29°
2026-05-05 20:21 1.62319 7.35030 5072 ft 217 kts 28°
2026-05-05 20:21 1.63665 7.35708 5073 ft 217 kts 29°
2026-05-05 20:22 1.65014 7.36400 5074 ft 219 kts 29°
2026-05-05 20:22 1.66364 7.37094 5075 ft 218 kts 29°
2026-05-05 20:22 1.67716 7.37784 5076 ft 218 kts 29°
2026-05-05 20:22 1.69066 7.38475 5069 ft 219 kts 29°
2026-05-05 20:23 1.70412 7.39169 5068 ft 218 kts 29°
2026-05-05 20:23 1.71762 7.39857 5074 ft 217 kts 29°
2026-05-05 20:23 1.73109 7.40544 5074 ft 218 kts 29°
2026-05-05 20:23 1.74460 7.41236 5072 ft 218 kts 29°
2026-05-05 20:24 1.75810 7.41926 5078 ft 217 kts 29°
2026-05-05 20:24 1.77156 7.42606 5076 ft 217 kts 29°
2026-05-05 20:24 1.78503 7.43298 5077 ft 218 kts 29°
2026-05-05 20:24 1.79854 7.43995 5076 ft 218 kts 29°
2026-05-05 20:25 1.81205 7.44684 5072 ft 217 kts 29°
2026-05-05 20:25 1.82552 7.45366 5073 ft 217 kts 29°
2026-05-05 20:25 1.83897 7.46055 5070 ft 217 kts 29°
2026-05-05 20:25 1.85243 7.46737 5075 ft 217 kts 29°
2026-05-05 20:26 1.86595 7.47418 5070 ft 219 kts 29°
2026-05-05 20:26 1.87951 7.48108 5074 ft 219 kts 29°
2026-05-05 20:26 1.89304 7.48802 5077 ft 218 kts 29°
2026-05-05 20:26 1.90656 7.49485 5073 ft 217 kts 29°
2026-05-05 20:27 1.92007 7.50166 5070 ft 218 kts 29°
2026-05-05 20:27 1.93361 7.50854 5075 ft 218 kts 29°
2026-05-05 20:27 1.94716 7.51538 5071 ft 218 kts 29°
2026-05-05 20:27 1.96070 7.52215 5077 ft 218 kts 29°
2026-05-05 20:28 1.97426 7.52901 5071 ft 219 kts 29°
2026-05-05 20:28 1.98782 7.53591 5076 ft 218 kts 29°
2026-05-05 20:28 2.00138 7.54272 5074 ft 218 kts 29°
2026-05-05 20:28 2.01490 7.54955 5074 ft 218 kts 29°
2026-05-05 20:29 2.02840 7.55646 5071 ft 218 kts 29°
2026-05-05 20:29 2.04189 7.56332 5071 ft 217 kts 29°
2026-05-05 20:29 2.05538 7.57013 5070 ft 217 kts 29°
2026-05-05 20:29 2.06865 7.57690 5073 ft 217 kts 29°
2026-05-05 20:30 2.08231 7.58392 5074 ft 219 kts 29°
2026-05-05 20:30 2.09562 7.59075 5073 ft 218 kts 29°
2026-05-05 20:30 2.10906 7.59774 5070 ft 217 kts 29°
2026-05-05 20:30 2.12246 7.60477 5074 ft 217 kts 29°
2026-05-05 20:31 2.13577 7.61171 5073 ft 217 kts 29°
2026-05-05 20:31 2.14912 7.61887 5069 ft 217 kts 34°
2026-05-05 20:31 2.16138 7.62758 5072 ft 216 kts 38°
2026-05-05 20:31 2.17339 7.63661 5073 ft 215 kts 39°
2026-05-05 20:32 2.18537 7.64560 5069 ft 216 kts 39°
2026-05-05 20:32 2.19721 7.65483 5073 ft 216 kts 44°
2026-05-05 20:32 2.20781 7.66546 5073 ft 216 kts 49°
2026-05-05 20:32 2.21738 7.67694 5073 ft 215 kts 54°
2026-05-05 20:33 2.22604 7.68915 5074 ft 215 kts 58°
2026-05-05 20:33 2.23138 7.69754 5072 ft 216 kts 59°
2026-05-05 20:33 2.24197 7.71445 5075 ft 214 kts 59°
2026-05-05 20:33 2.24726 7.72278 5073 ft 214 kts 58°
2026-05-05 20:34 2.25529 7.73530 5069 ft 214 kts 58°
2026-05-05 20:34 2.26368 7.74761 5063 ft 214 kts 51°
2026-05-05 20:34 2.27439 7.75792 5076 ft 214 kts 42°
2026-05-05 20:34 2.28563 7.76771 5077 ft 215 kts 44°
2026-05-05 20:35 2.29669 7.77793 5071 ft 216 kts 45°
2026-05-05 20:35 2.30738 7.78844 5075 ft 215 kts 47°
2026-05-05 20:35 2.31785 7.79916 5073 ft 216 kts 48°
2026-05-05 20:35 2.32815 7.81006 5074 ft 216 kts 49°
2026-05-05 20:36 2.33837 7.82108 5072 ft 216 kts 49°
2026-05-05 20:36 2.34854 7.83205 5075 ft 215 kts 49°
2026-05-05 20:36 2.35875 7.84299 5069 ft 215 kts 48°
2026-05-05 20:36 2.36914 7.85382 5070 ft 216 kts 47°
2026-05-05 20:37 2.37981 7.86437 5073 ft 215 kts 46°
2026-05-05 20:37 2.39071 7.87458 5074 ft 215 kts 44°
2026-05-05 20:37 2.40197 7.88447 5074 ft 216 kts 42°
2026-05-05 20:37 2.41362 7.89399 5072 ft 217 kts 40°
2026-05-05 20:38 2.42521 7.90276 5059 ft 217 kts 38°
2026-05-05 20:38 2.43764 7.91164 5059 ft 217 kts 37°
2026-05-05 20:38 2.45000 7.91996 5067 ft 217 kts 34°
2026-05-05 20:38 2.46278 7.92791 5070 ft 216 kts 33°
2026-05-05 20:39 2.47569 7.93527 5056 ft 216 kts 31°
2026-05-05 20:39 2.48911 7.94237 5036 ft 218 kts 29°
2026-05-05 20:39 2.50267 7.94906 5061 ft 217 kts 27°
2026-05-05 20:39 2.51638 7.95538 5065 ft 218 kts 26°
2026-05-05 20:40 2.53026 7.96146 5070 ft 218 kts 25°
2026-05-05 20:40 2.54428 7.96735 5073 ft 218 kts 25°
2026-05-05 20:40 2.55834 7.97305 5074 ft 218 kts 24°
2026-05-05 20:40 2.57249 7.97864 5071 ft 218 kts 24°
2026-05-05 20:41 2.58659 7.98422 5069 ft 218 kts 24°
2026-05-05 20:41 2.60069 7.98980 5069 ft 218 kts 24°
2026-05-05 20:41 2.61471 7.99552 5070 ft 218 kts 25°
2026-05-05 20:41 2.62859 8.00154 5070 ft 217 kts 26°
2026-05-05 20:42 2.64230 8.00790 5071 ft 217 kts 28°
2026-05-05 20:42 2.65584 8.01460 5071 ft 218 kts 29°
2026-05-05 20:42 2.66929 8.02181 5070 ft 219 kts 31°
2026-05-05 20:42 2.68249 8.02948 5070 ft 219 kts 33°
2026-05-05 20:43 2.69540 8.03754 5070 ft 219 kts 34°
2026-05-05 20:43 2.70808 8.04595 5070 ft 219 kts 36°
2026-05-05 20:43 2.72049 8.05471 5069 ft 219 kts 37°
2026-05-05 20:43 2.73258 8.06364 5073 ft 218 kts 38°
2026-05-05 20:44 2.73873 8.06828 5049 ft 218 kts 39°
2026-05-05 20:44 2.75060 8.07735 5066 ft 217 kts 39°
2026-05-05 20:44 2.76253 8.08659 5075 ft 217 kts 39°
2026-05-05 20:44 2.77449 8.09588 5073 ft 218 kts 39°
2026-05-05 20:45 2.79691 8.11324 5058 ft 218 kts 39°
2026-05-05 20:45 2.80895 8.12247 5064 ft 218 kts 39°
2026-05-05 20:45 2.82084 8.13143 5069 ft 217 kts 38°
2026-05-05 20:46 2.83306 8.14037 5056 ft 218 kts 38°
2026-05-05 20:46 2.84541 8.14919 5059 ft 218 kts 37°
2026-05-05 20:46 2.85788 8.15784 5067 ft 218 kts 36°
2026-05-05 20:46 2.87047 8.16626 5057 ft 218 kts 35°
2026-05-05 20:47 2.88315 8.17451 5063 ft 218 kts 34°
2026-05-05 20:47 2.89596 8.18261 5070 ft 217 kts 33°
2026-05-05 20:47 2.90890 8.19045 5071 ft 218 kts 33°
2026-05-05 20:47 2.92203 8.19817 5071 ft 219 kts 32°
2026-05-05 20:48 2.93522 8.20575 5072 ft 219 kts 31°
2026-05-05 20:48 2.94852 8.21320 5075 ft 219 kts 31°
2026-05-05 20:48 2.96188 8.22051 5076 ft 219 kts 31°
2026-05-05 20:48 2.97528 8.22779 5071 ft 219 kts 30°
2026-05-05 20:49 2.98872 8.23500 5075 ft 219 kts 30°
2026-05-05 20:49 3.00214 8.24216 5072 ft 218 kts 30°
2026-05-05 20:49 3.01551 8.24937 5074 ft 218 kts 30°
2026-05-05 20:49 3.02882 8.25670 5071 ft 218 kts 31°
2026-05-05 20:50 3.04207 8.26407 5071 ft 218 kts 31°
2026-05-05 20:50 3.05525 8.27157 5072 ft 218 kts 32°
2026-05-05 20:50 3.06833 8.27937 5066 ft 219 kts 33°
2026-05-05 20:50 3.08131 8.28739 5071 ft 219 kts 34°
2026-05-05 20:51 3.09413 8.29548 5068 ft 218 kts 34°
2026-05-05 20:51 3.10684 8.30375 5073 ft 218 kts 35°
2026-05-05 20:51 3.11940 8.31214 5063 ft 217 kts 36°
2026-05-05 20:51 3.13193 8.32059 5067 ft 217 kts 36°
2026-05-05 20:52 3.14443 8.32903 5072 ft 217 kts 36°
2026-05-05 20:52 3.15677 8.33744 5071 ft 218 kts 36°
2026-05-05 20:52 3.16966 8.34534 5069 ft 218 kts 24°
2026-05-05 20:52 3.18477 8.34782 5095 ft 219 kts
2026-05-05 20:53 3.19999 8.34756 5132 ft 220 kts
2026-05-05 20:53 3.21548 8.34710 4994 ft 228 kts
2026-05-05 20:53 3.23159 8.34661 4784 ft 235 kts
2026-05-05 20:53 3.24807 8.34610 4622 ft 238 kts
2026-05-05 20:54 3.26463 8.34570 4480 ft 238 kts
2026-05-05 20:54 3.28119 8.34540 4352 ft 238 kts
2026-05-05 20:54 3.29733 8.34518 4202 ft 236 kts
2026-05-05 20:54 3.31342 8.34595 4052 ft 228 kts 14°
2026-05-05 20:55 3.32743 8.35208 3933 ft 221 kts 30°
2026-05-05 20:55 3.34065 8.35984 3738 ft 220 kts 32°
2026-05-05 20:55 3.35385 8.36774 3545 ft 221 kts 32°
2026-05-05 20:55 3.36705 8.37565 3347 ft 222 kts 32°
2026-05-05 20:56 3.38026 8.38366 3153 ft 221 kts 32°
2026-05-05 20:56 3.39338 8.39169 3024 ft 219 kts 32°
2026-05-05 20:56 3.40615 8.39951 3058 ft 211 kts 32°
2026-05-05 20:56 3.41850 8.40706 3071 ft 206 kts 32°
2026-05-05 20:57 3.43062 8.41448 3080 ft 203 kts 32°
2026-05-05 20:57 3.44269 8.42184 3071 ft 203 kts 32°
2026-05-05 20:57 3.45472 8.42910 3074 ft 201 kts 30°
2026-05-05 20:57 3.46738 8.43490 3074 ft 200 kts 18°
2026-05-05 20:58 3.48118 8.43632 3077 ft 201 kts
2026-05-05 20:58 3.49516 8.43626 3078 ft 201 kts 359°
2026-05-05 20:58 3.50915 8.43612 3078 ft 201 kts 359°
2026-05-05 20:58 3.52310 8.43594 3073 ft 200 kts 359°
2026-05-05 20:59 3.53697 8.43574 3076 ft 200 kts 359°
2026-05-05 20:59 3.55087 8.43562 3079 ft 201 kts
2026-05-05 20:59 3.56398 8.43994 3084 ft 200 kts 34°
2026-05-05 20:59 3.57478 8.44865 3068 ft 200 kts 41°
2026-05-05 21:00 3.58531 8.45774 3077 ft 200 kts 42°
2026-05-05 21:00 3.59586 8.46680 3079 ft 200 kts 42°
2026-05-05 21:00 3.60639 8.47584 3082 ft 199 kts 42°
2026-05-05 21:00 3.61681 8.48492 3084 ft 198 kts 42°
2026-05-05 21:01 3.62725 8.49407 3084 ft 200 kts 42°
2026-05-05 21:01 3.63774 8.50319 3086 ft 200 kts 42°
2026-05-05 21:01 3.64820 8.51231 3088 ft 199 kts 42°
2026-05-05 21:01 3.65862 8.52145 3086 ft 199 kts 42°
2026-05-05 21:02 3.66905 8.53060 3088 ft 201 kts 42°
2026-05-05 21:02 3.67957 8.53978 3087 ft 200 kts 42°
2026-05-05 21:02 3.69007 8.54896 3085 ft 200 kts 42°
2026-05-05 21:02 3.70052 8.55810 3089 ft 199 kts 42°
2026-05-05 21:03 3.71087 8.56709 3085 ft 199 kts 42°
2026-05-05 21:03 3.72126 8.57618 3090 ft 198 kts 42°
2026-05-05 21:03 3.73161 8.58528 3088 ft 198 kts 42°
2026-05-05 21:03 3.74201 8.59442 3089 ft 200 kts 42°
2026-05-05 21:04 3.75249 8.60361 3090 ft 200 kts 42°
2026-05-05 21:04 3.76296 8.61278 3089 ft 199 kts 42°
2026-05-05 21:04 3.77340 8.62192 3082 ft 200 kts 42°
2026-05-05 21:04 3.78400 8.63114 3029 ft 204 kts 42°
2026-05-05 21:05 3.79475 8.64051 2935 ft 207 kts 42°
2026-05-05 21:05 3.80568 8.65013 2817 ft 211 kts 42°
2026-05-05 21:05 3.81676 8.65979 2715 ft 213 kts 42°
2026-05-05 21:05 3.82801 8.66953 2632 ft 213 kts 42°
2026-05-05 21:06 3.83910 8.67924 2544 ft 208 kts 42°
2026-05-05 21:06 3.84981 8.68864 2420 ft 204 kts 42°
2026-05-05 21:06 3.86054 8.69799 2267 ft 205 kts 42°
2026-05-05 21:06 3.87132 8.70729 2131 ft 204 kts 43°
2026-05-05 21:07 3.87930 8.71835 2012 ft 193 kts 72°
2026-05-05 21:07 3.87993 8.73097 1880 ft 177 kts 106°
2026-05-05 21:07 3.87410 8.74086 1812 ft 157 kts 131°
2026-05-05 21:07 3.86719 8.74884 1683 ft 148 kts 132°
2026-05-05 21:08 3.86035 8.75665 1489 ft 150 kts 130°
2026-05-05 21:08 3.85392 8.76507 1316 ft 153 kts 129°
2026-05-05 21:08 3.84563 8.77116 1237 ft 149 kts 162°
2026-05-05 21:08 3.83543 8.77161 1125 ft 147 kts 193°
2026-05-05 21:09 3.82635 8.76910 901 ft 126 kts 199°
2026-05-05 21:09 3.81899 8.76528 735 ft 114 kts 215°
2026-05-05 21:09 3.81294 8.76019 654 ft 112 kts 224°
2026-05-05 21:09 3.80724 8.75473 563 ft 115 kts 223°
2026-05-05 21:10 3.80137 8.74940 493 ft 112 kts 221°
2026-05-05 21:10 3.79529 8.74453 415 ft 113 kts 215°
2026-05-05 21:10 3.78974 8.73922 295 ft 105 kts 225°
2026-05-05 21:10 3.78435 8.73445 260 ft 104 kts 219°
2026-05-05 21:11 3.77871 8.72962 254 ft 109 kts 222°
2026-05-05 21:11 3.77304 8.72452 190 ft 109 kts 221°
2026-05-05 21:11 3.76734 8.71945 126 ft 109 kts 222°
2026-05-05 21:11 3.76203 8.71473 63 ft 90 kts 224°
2026-05-05 21:12 3.75828 8.71136 62 ft 54 kts 220°
2026-05-05 21:12 3.75662 8.70998 63 ft 14 kts 197°
2026-05-05 21:12 3.75577 8.71050 62 ft 15 kts 131°
2026-05-05 21:12 3.75565 8.71140 64 ft 15 kts 44°
2026-05-05 21:13 3.75646 8.71215 64 ft 17 kts 43°
2026-05-05 21:13 3.75734 8.71295 64 ft 18 kts 43°
2026-05-05 21:13 3.75826 8.71379 59 ft 18 kts 42°
2026-05-05 21:13 3.75923 8.71466 64 ft 19 kts 41°
2026-05-05 21:14 3.76002 8.71573 61 ft 20 kts 57°
2026-05-05 21:14 3.76073 8.71696 64 ft 22 kts 66°
2026-05-05 21:14 3.76187 8.71820 64 ft 25 kts 42°
2026-05-05 21:14 3.76197 8.71953 65 ft 5 kts 127°